GFSGL_850_temp_021.txt.gz
Temp
13 13 13 13 13 13 12 12 12 12 12 12 12 12 12 12 12 12 12 13 12 12 12 12 13 12 12 11 11 11 12 12 12 11 11 10 10 10 10 10 11 10 10
14 13 13 13 13 12 12 12 12 12 12 12 12 12 12 12 12 12 12 12 12 12 13 13 12 11 11 11 11 11 12 11 12 11 10 10 10 10 10 10 10 10 10
14 13 13 13 12 12 12 12 12 12 12 12 12 12 12 12 12 13 13 13 12 13 12 12 11 11 11 11 11 11 11 11 11 11 10 10 10 10 10 10 10 10 10
14 13 13 13 12 12 12 12 12 12 12 12 12 12 12 12 12 12 12 12 11 11 11 11 11 12 12 11 11 11 11 11 11 11 10 10 10 10 10 11 10 10 11
14 13 13 13 12 12 12 12 12 13 12 12 12 12 12 12 12 12 12 12 11 11 11 11 11 11 11 11 11 11 11 11 10 10 10 10 10 10 11 11 11 10 10
14 13 13 13 13 13 12 12 12 12 13 13 12 12 12 12 12 12 13 12 11 11 11 11 11 11 11 11 11 11 11 11 11 10 10 10 11 11 11 10 10 10 10
14 13 13 13 12 13 13 13 12 12 12 12 12 12 12 12 12 12 12 12 12 11 11 11 11 11 11 11 11 11 11 11 11 12 11 11 11 11 11 11 11 11 10
14 14 13 13 12 13 13 13 13 12 12 12 11 11 11 11 11 11 12 11 11 11 11 11 11 11 11 11 10 10 10 10 10 10 11 11 12 12 12 13 12 12 11
14 14 13 13 13 13 13 13 13 13 12 12 11 11 11 11 11 10 11 10 11 11 11 11 11 11 11 11 11 11 11 11 11 11 11 11 12 12 13 12 12 11 10
14 14 14 13 13 13 13 14 13 13 12 12 12 11 11 10 10 10 10 11 10 10 11 11 11 11 11 11 11 11 12 12 12 12 12 12 12 12 12 12 12 11 12
15 14 14 13 14 13 13 14 13 13 13 13 12 12 11 11 11 10 10 11 11 10 10 11 10 11 11 12 12 12 13 12 12 13 13 13 12 13 13 13 13 12 12
15 15 14 14 13 13 13 14 13 13 13 13 12 12 12 11 11 11 11 11 11 11 11 11 11 11 12 12 13 13 13 13 13 13 13 13 13 13 13 13 12 12 12
16 15 15 14 13 13 14 14 14 13 13 13 13 13 12 12 12 12 12 12 12 12 12 12 12 12 12 12 13 13 13 13 13 13 13 13 13 13 13 12 12 11 11
16 15 15 14 14 13 13 13 14 14 13 13 12 13 13 13 12 12 12 12 12 12 12 12 12 12 12 12 13 13 13 13 13 13 13 13 13 12 12 12 11 11 11
17 16 15 15 14 14 13 13 13 14 14 14 14 13 13 13 13 13 13 13 12 12 12 12 12 12 12 13 13 13 13 13 13 13 13 13 13 12 12 11 11 10 10
17 16 16 15 15 14 13 13 13 13 13 13 14 14 14 13 13 13 13 13 13 13 13 12 13 13 13 13 13 13 13 13 13 13 13 13 13 12 12 11 10 9 9
18 17 16 16 15 14 13 13 14 14 13 13 13 13 13 14 13 13 13 13 12 12 12 12 13 13 13 13 13 14 14 13 13 13 13 13 12 12 12 11 10 9 8
19 19 18 16 16 15 14 13 13 13 13 14 14 13 13 13 12 13 13 12 12 12 12 12 13 13 13 13 13 13 13 13 13 13 13 12 12 12 11 10 9 9 8
20 19 18 18 17 16 15 14 13 13 13 13 14 14 13 13 13 12 12 12 13 13 13 14 14 14 14 14 14 14 14 14 13 13 13 12 12 11 10 10 8 8 7
21 20 19 18 18 17 16 16 14 14 14 14 14 15 14 13 13 13 13 12 12 12 13 14 14 14 14 14 14 14 14 14 13 13 13 12 12 11 10 9 9 8 7
21 20 19 19 18 18 17 16 15 15 15 14 15 16 16 15 15 14 14 14 13 13 13 14 14 15 15 14 14 14 14 14 14 14 13 12 12 11 10 8 8 8 7
22 21 20 19 19 18 18 18 17 17 16 16 16 16 16 16 15 14 15 15 15 15 14 14 14 14 14 14 14 14 14 14 14 14 14 13 12 11 10 9 8 6 6
22 21 21 19 19 19 19 18 18 18 18 17 17 17 17 17 16 16 16 16 16 16 15 15 15 15 15 15 15 15 14 14 15 14 14 13 12 11 10 9 8 6 4
21 21 21 20 19 19 19 19 19 18 18 18 18 18 18 18 17 17 17 17 17 17 16 16 16 15 15 15 15 15 15 14 14 14 13 13 12 12 10 9 7 5 3
18 19 19 19 20 20 20 19 19 19 19 18 18 18 18 18 18 18 18 17 17 17 17 16 16 16 16 15 15 15 15 15 14 14 13 13 12 11 10 9 7 4 1
17 19 17 15 16 18 19 20 20 19 19 19 19 18 18 18 18 18 18 18 17 17 17 17 16 16 16 16 16 16 15 15 14 13 12 11 10 10 8 7 5 2 1

GFSGL_850_temp_024.txt.gz
Temp
14 13 13 13 12 12 12 12 11 11 11 11 11 11 11 12 12 12 12 11 12 12 12 12 12 12 11 12 12 12 12 12 11 11 11 11 10 10 9 10 10 10 9
14 14 13 13 12 12 12 12 11 11 12 12 12 11 12 12 12 12 11 11 11 12 12 12 12 12 12 12 12 12 12 12 11 11 10 10 10 10 10 10 10 10 9
14 14 13 12 12 12 12 12 11 12 12 12 12 11 13 12 11 12 12 12 11 11 11 12 11 12 12 12 11 12 11 12 11 11 10 10 10 10 10 10 10 9 9
15 14 13 12 12 12 12 12 12 12 12 11 12 12 13 12 12 12 11 12 12 11 12 12 11 12 12 12 11 12 11 11 11 11 10 10 10 10 10 10 9 9 9
15 14 13 12 12 12 12 12 12 12 12 12 11 13 13 12 12 12 12 12 11 12 12 11 11 11 11 11 12 12 11 11 11 10 10 10 10 10 10 10 10 10 10
15 14 13 13 13 12 12 12 12 11 12 12 11 13 13 12 13 13 11 11 11 11 12 12 11 11 11 11 11 11 11 11 10 10 10 10 10 10 10 10 10 10 9
15 14 14 13 13 12 13 13 12 12 11 12 11 12 13 12 12 12 12 11 11 11 11 11 11 11 11 11 11 11 11 11 11 11 10 10 10 11 11 10 10 10 10
15 15 14 14 13 13 13 12 12 12 12 12 12 12 12 12 12 12 12 11 11 11 11 11 11 11 11 11 11 11 11 10 10 10 11 11 11 11 10 10 11 11 10
15 15 14 14 14 13 13 12 12 12 12 12 11 11 12 12 11 11 11 11 11 12 11 11 11 11 11 11 11 11 10 10 10 10 10 11 10 11 10 10 11 11 10
16 15 15 15 14 13 12 12 12 12 12 12 11 11 11 11 11 11 11 11 11 11 11 11 11 11 11 11 11 10 11 10 11 11 10 10 11 11 12 12 12 12 12
16 16 15 14 14 13 12 12 12 13 12 11 11 11 11 11 11 10 10 10 11 11 11 11 11 11 11 11 11 12 12 12 11 11 11 11 11 12 11 11 11 13 12
16 16 15 14 14 13 12 12 12 12 12 12 11 11 11 11 11 10 11 11 11 11 11 11 11 12 12 12 12 12 12 12 11 11 12 11 11 10 12 12 12 12 12
16 16 15 14 14 13 13 12 13 12 13 13 13 12 11 11 11 11 10 11 11 11 11 11 11 12 12 12 13 13 12 12 12 12 12 11 11 12 13 13 12 12 12
16 16 15 14 14 14 13 13 14 14 14 14 14 14 13 12 11 12 11 11 11 11 11 11 12 12 12 12 13 13 12 13 13 13 12 11 14 13 13 13 12 12 11
16 16 15 15 14 14 14 14 15 14 15 15 15 14 13 13 13 12 11 11 11 12 12 12 12 12 12 12 12 12 12 12 13 13 12 13 13 11 11 11 10 10 9
16 16 16 16 14 15 14 14 14 14 14 14 14 14 14 14 13 13 13 12 12 13 12 12 12 12 13 13 13 12 12 13 13 12 11 12 11 11 10 11 10 9 9
17 17 17 16 16 15 15 15 14 13 14 14 14 14 13 13 14 13 13 13 13 12 13 13 13 13 13 13 13 13 13 12 12 12 12 11 11 11 10 9 9 9 9
17 17 17 17 17 16 16 15 15 15 13 13 14 14 13 13 13 13 13 13 12 12 13 14 14 14 14 14 14 14 14 13 12 12 12 11 11 11 10 10 10 9 9
17 17 17 17 17 17 17 16 16 16 16 15 14 13 13 13 13 13 12 12 12 12 13 14 14 14 14 14 14 14 14 13 12 12 12 11 11 11 10 10 10 9 8
18 18 18 18 18 17 17 17 17 17 16 16 16 14 13 13 13 13 13 13 13 14 14 14 14 14 14 14 14 14 13 13 12 12 12 11 11 11 11 10 10 8 7
19 18 18 18 18 17 17 17 17 17 17 17 17 16 15 14 13 13 12 13 13 14 14 14 15 14 14 14 13 13 13 13 12 12 12 11 11 10 10 10 9 7 6
19 19 18 19 18 18 18 18 17 17 17 17 17 17 15 15 15 15 15 14 13 13 14 14 15 15 15 14 14 13 13 13 13 12 12 12 11 10 10 10 8 6 5
20 19 18 19 19 19 17 18 18 18 18 18 18 17 16 15 15 16 16 15 15 14 14 14 14 14 14 14 14 13 14 14 13 13 12 12 11 10 9 9 8 6 4
20 20 19 18 19 19 18 18 18 18 18 18 18 18 17 15 15 15 16 16 15 15 14 14 14 14 14 14 14 13 13 14 14 13 12 12 11 10 9 8 7 5 4
20 19 19 18 19 18 18 18 18 18 18 18 18 18 18 18 16 15 16 16 16 15 15 14 14 14 14 14 14 13 14 15 15 14 12 11 10 9 8 7 6 3 5
19 18 18 18 18 18 18 18 17 17 18 18 17 18 18 18 17 16 16 16 16 16 15 15 15 16 16 16 16 14 14 15 15 15 14 12 10 9 8 7 6 7 6

GFSGL_850_temp_030.txt.gz
Temp
15 15 16 16 14 14 14 13 13 13 13 13 13 13 13 13 13 13 13 13 13 13 13 13 12 13 13 12 12 13 12 13 12 11 11 11 11 11 11 10 9 9 10
16 16 15 15 14 14 13 13 13 13 13 13 13 13 13 13 13 12 12 12 13 13 13 12 12 12 12 13 13 12 12 13 13 11 11 11 11 10 9 10 9 10 9
16 16 15 14 14 13 13 13 13 13 13 13 13 13 13 13 13 12 12 12 13 13 13 12 12 12 13 13 13 13 13 12 12 10 10 9 9 9 10 10 10 9 9
17 16 16 14 14 13 13 13 14 13 14 13 13 13 12 12 12 11 12 12 12 12 13 13 12 12 12 12 12 12 12 11 10 10 9 9 9 9 10 10 9 9 8
17 17 16 14 14 14 13 13 14 14 14 13 13 12 13 12 12 11 12 12 12 12 12 12 12 12 12 11 11 12 11 10 10 10 9 9 9 9 10 9 9 9 8
17 16 16 14 14 14 14 13 13 14 14 13 13 13 11 12 11 11 12 12 12 12 12 12 12 12 11 11 11 11 11 10 10 10 10 10 9 10 10 10 10 9 8
17 16 16 14 14 14 13 13 13 13 13 13 13 12 12 13 12 12 12 12 12 12 12 12 12 11 11 11 11 11 10 10 12 12 11 10 10 11 11 10 10 10 11
17 16 16 15 14 14 13 13 13 13 13 13 12 12 13 13 13 12 12 12 12 12 11 11 11 11 11 11 11 11 10 10 11 11 12 11 12 11 12 12 10 10 10
18 17 16 15 14 14 14 13 13 13 13 13 12 12 13 13 13 12 12 12 12 12 12 11 11 11 11 11 11 10 10 11 11 11 11 11 12 11 11 11 10 10 9
18 18 16 15 15 14 14 14 14 13 12 12 12 11 13 13 13 12 12 12 12 12 12 11 11 11 11 11 11 11 10 10 10 10 10 10 11 11 10 10 11 10 10
18 18 17 16 15 14 14 14 13 13 12 12 12 11 13 12 12 12 11 12 12 12 11 11 11 11 11 11 10 10 11 11 11 11 10 10 10 10 10 10 10 11 12
18 18 17 16 15 14 14 14 13 13 12 12 11 11 12 12 12 11 11 11 12 11 11 11 11 11 11 11 11 11 11 10 10 10 10 10 10 10 11 10 10 11 11
19 18 17 16 16 15 14 14 14 13 14 13 12 12 11 11 11 11 11 11 11 11 12 11 11 11 11 11 11 11 11 11 11 10 10 11 11 12 11 11 11 11 12
19 18 17 16 15 15 14 14 15 14 13 13 13 12 12 11 11 11 11 11 11 12 12 11 11 11 11 11 11 11 11 12 11 11 11 12 11 11 11 11 11 12 12
18 18 17 16 16 15 15 15 15 15 15 15 14 14 13 12 11 12 12 12 12 12 12 12 12 12 12 12 12 12 12 12 12 12 12 12 12 11 11 12 12 12 12
18 17 17 16 16 15 16 16 16 16 16 16 15 15 14 14 13 12 12 12 12 12 12 12 12 12 13 12 12 13 13 13 13 13 13 12 12 12 12 13 13 13 13
18 18 17 17 16 16 16 16 16 16 16 16 16 15 15 14 14 13 12 12 12 12 12 12 13 13 13 13 13 14 13 13 13 14 13 13 13 13 12 12 12 11 11
19 18 18 17 17 17 16 16 16 16 16 16 15 16 15 15 14 14 13 12 12 12 13 13 14 14 14 14 14 14 14 14 14 14 14 14 13 13 13 12 12 11 11
19 18 18 18 18 18 17 17 17 16 15 15 15 15 15 14 14 14 13 13 13 13 13 13 14 15 15 15 15 14 14 14 14 14 14 14 13 13 13 13 12 12 11
19 19 18 19 19 19 18 18 18 17 16 15 15 15 14 14 14 14 14 13 13 13 14 14 14 15 15 15 15 15 15 15 15 14 14 14 13 13 13 13 12 12 12
19 19 19 19 19 19 19 19 18 18 17 17 16 16 16 15 15 15 15 15 14 13 14 14 15 15 16 16 16 15 15 15 15 15 15 14 14 13 13 13 13 12 12
20 19 19 19 20 20 19 19 19 19 19 18 17 17 17 17 16 16 15 15 16 16 15 15 15 15 16 16 16 16 16 15 15 15 15 14 14 13 13 13 13 13 12
21 20 20 19 20 20 20 20 20 19 19 19 19 18 18 17 17 17 17 17 17 16 16 15 15 15 16 16 16 16 16 15 15 15 15 15 14 14 13 13 13 12 12
22 22 21 20 20 20 20 20 20 20 19 20 20 19 19 19 18 18 17 17 16 15 16 16 16 16 15 16 16 16 16 16 16 15 15 15 15 14 14 13 13 13 12
22 22 22 21 20 21 21 21 20 20 20 20 20 20 20 19 19 18 17 17 17 16 15 16 16 16 16 16 16 16 16 16 16 16 15 15 15 14 14 13 13 13 12
20 22 22 22 21 20 21 21 21 20 20 20 20 20 20 20 20 19 19 18 17 17 17 17 16 16 16 16 17 16 16 16 16 16 16 15 15 15 14 14 13 13 12

GFSGL_850_temp_033.txt.gz
Temp
15 15 15 15 15 14 14 13 13 13 13 13 13 13 13 13 13 13 13 13 13 13 12 12 13 13 13 13 13 13 12 12 12 11 11 11 11 11 11 11 10 9 9
15 15 15 15 15 14 14 13 13 13 13 13 13 13 13 13 13 13 13 13 13 12 12 12 13 13 13 12 12 12 12 12 13 11 11 11 11 11 10 9 10 9 10
15 15 15 15 14 14 13 13 13 13 13 13 13 13 13 13 13 13 13 13 12 12 12 12 12 12 12 13 13 13 13 12 12 11 11 11 10 9 9 10 10 9 9
16 16 15 15 14 14 13 13 13 13 13 13 13 13 13 12 12 12 12 12 12 12 12 12 12 12 12 12 12 12 12 12 10 11 10 9 9 10 9 9 9 9 9
16 16 16 15 14 14 13 13 14 14 14 14 13 13 13 12 11 12 12 12 12 13 13 12 12 12 12 12 12 11 11 11 10 10 9 9 9 9 10 9 9 9 8
16 16 16 14 14 14 13 13 13 14 14 14 13 13 13 12 11 11 12 12 12 12 13 12 12 11 11 11 11 11 11 11 10 9 9 10 10 10 10 10 10 9 8
17 16 15 15 14 14 13 13 13 13 13 13 13 13 12 12 11 12 12 13 13 12 12 12 12 11 11 11 11 11 10 10 11 12 11 11 11 11 11 10 10 11 11
17 16 15 15 14 14 13 13 13 13 13 13 13 13 13 13 12 12 12 12 12 12 12 12 12 11 11 11 11 10 10 10 11 11 12 12 11 11 12 12 11 10 9
17 16 15 15 14 14 13 14 13 13 13 12 12 13 13 13 12 12 12 12 12 12 11 11 12 11 11 11 11 10 10 11 11 11 11 11 11 11 11 10 10 10 10
17 17 16 15 15 14 14 14 13 13 12 12 13 12 13 13 12 12 12 12 12 11 11 11 11 11 10 11 11 11 11 11 11 10 11 11 11 10 10 11 12 12 12
17 17 16 15 15 14 14 14 13 12 12 12 12 12 12 13 12 12 12 12 12 12 11 10 10 10 10 11 11 11 12 11 11 10 10 10 10 10 11 11 11 12 12
18 17 16 16 15 14 14 13 13 12 11 11 11 11 12 12 12 12 11 12 12 12 10 11 10 10 11 11 11 11 11 11 10 10 10 10 10 10 10 10 10 11 11
18 17 16 16 15 14 14 14 13 13 13 12 12 12 12 11 11 11 11 12 12 11 11 11 11 10 10 10 10 10 10 10 10 10 10 11 11 10 10 10 10 10 10
18 17 16 15 15 15 14 14 14 13 13 13 13 12 12 11 11 11 11 11 11 11 11 11 11 11 10 11 10 10 10 10 11 11 11 11 11 10 10 11 11 11 11
18 17 17 16 15 15 14 14 15 14 14 14 14 13 12 12 12 11 12 12 12 12 12 11 11 11 11 11 10 10 10 11 11 11 11 11 11 11 11 11 11 11 11
18 18 17 16 15 15 14 14 15 15 16 15 14 14 13 13 12 12 12 12 12 12 12 12 12 12 12 12 11 11 12 12 12 12 12 12 12 12 12 12 11 12 12
18 18 17 16 15 15 15 15 15 15 16 15 15 15 15 14 13 12 12 12 12 12 13 13 13 13 13 13 12 12 12 12 12 12 12 12 12 12 12 12 12 12 12
19 18 18 17 16 16 15 15 16 16 16 15 14 15 15 15 14 13 12 12 12 12 13 12 13 13 13 13 13 13 12 12 13 13 12 13 13 13 12 13 13 13 13
19 18 18 17 16 16 16 16 16 16 16 16 15 14 14 14 14 14 13 13 13 13 13 13 13 13 13 14 14 13 13 13 13 13 13 13 14 13 13 14 14 13 12
19 19 18 17 17 17 16 16 16 16 16 16 15 15 15 14 14 13 13 14 14 14 13 13 13 13 13 14 14 14 14 14 14 14 14 14 14 14 13 14 13 13 13
20 19 18 18 18 17 17 17 17 17 16 17 17 16 16 15 15 14 14 13 13 14 14 14 14 14 14 14 15 15 15 15 14 14 14 14 14 14 14 13 13 13 13
20 20 19 18 18 18 18 18 18 17 17 17 17 17 17 16 16 15 15 15 15 15 15 15 15 14 15 15 15 15 15 15 15 15 15 15 14 14 14 14 13 13 13
21 21 20 20 19 18 19 19 19 18 18 18 18 18 17 17 17 16 16 17 16 16 16 15 15 15 15 15 15 15 15 15 15 15 15 15 15 15 14 14 14 13 13
19 20 20 21 20 19 19 19 19 19 19 19 19 18 18 18 18 18 18 17 17 17 17 16 16 16 15 15 15 15 15 15 15 15 15 15 15 15 15 14 14 13 13
19 19 20 20 20 20 20 20 20 20 19 19 19 19 19 19 19 19 19 18 18 18 17 17 17 17 16 16 15 15 15 16 16 16 16 16 15 15 15 15 15 14 13
18 19 19 20 20 20 21 20 20 20 20 20 19 19 19 19 19 19 19 19 19 19 18 18 18 18 17 17 17 16 16 16 16 16 16 16 16 15 15 15 15 14 14